Year,Month,Day,Hour,Minute,Value (Times are PST for temperature in C)
2018,07,19,00,00,16.80
2018,07,19,00,01,16.80
2018,07,19,00,02,16.80
2018,07,19,00,03,16.80
2018,07,19,00,04,16.80
2018,07,19,00,05,16.80
2018,07,19,00,06,16.70
2018,07,19,00,07,16.70
2018,07,19,00,08,16.60
2018,07,19,00,09,16.60
2018,07,19,00,10,16.60
2018,07,19,00,11,16.60
2018,07,19,00,12,16.60
2018,07,19,00,13,16.60
2018,07,19,00,14,16.60
2018,07,19,00,15,16.60
2018,07,19,00,16,16.60
2018,07,19,00,17,16.60
2018,07,19,00,18,16.60
2018,07,19,00,19,16.60
2018,07,19,00,20,16.60
2018,07,19,00,21,16.60
2018,07,19,00,22,16.60
2018,07,19,00,23,16.60
2018,07,19,00,24,16.60
2018,07,19,00,25,16.60
2018,07,19,00,26,16.60
2018,07,19,00,27,16.60
2018,07,19,00,28,16.60
2018,07,19,00,29,16.50
2018,07,19,00,30,16.50
2018,07,19,00,31,16.40
2018,07,19,00,32,16.40
2018,07,19,00,33,16.40
2018,07,19,00,34,16.40
2018,07,19,00,35,16.40
2018,07,19,00,36,16.30
2018,07,19,00,37,16.30
2018,07,19,00,38,16.30
2018,07,19,00,39,16.20
2018,07,19,00,40,16.20
2018,07,19,00,41,16.20
2018,07,19,00,42,16.20
2018,07,19,00,43,16.10
2018,07,19,00,44,16.10
2018,07,19,00,45,16.10
2018,07,19,00,46,16.10
2018,07,19,00,47,16.00
2018,07,19,00,48,16.00
2018,07,19,00,49,15.90
2018,07,19,00,50,15.80
2018,07,19,00,51,15.80
2018,07,19,00,52,15.70
2018,07,19,00,53,15.70
2018,07,19,00,54,15.60
2018,07,19,00,55,15.60
2018,07,19,00,56,15.60
2018,07,19,00,57,15.60
2018,07,19,00,58,15.50
2018,07,19,00,59,15.50
2018,07,19,01,00,15.40
2018,07,19,01,01,15.40
2018,07,19,01,02,15.40
2018,07,19,01,03,15.30
2018,07,19,01,04,15.30
2018,07,19,01,05,15.40
2018,07,19,01,06,15.40
2018,07,19,01,07,15.40
2018,07,19,01,08,15.40
2018,07,19,01,09,15.40
2018,07,19,01,10,15.40
2018,07,19,01,11,15.30
2018,07,19,01,12,15.30
2018,07,19,01,13,15.20
2018,07,19,01,14,15.20
2018,07,19,01,15,15.10
2018,07,19,01,16,15.10
2018,07,19,01,17,15.00
2018,07,19,01,18,15.00
2018,07,19,01,19,15.00
2018,07,19,01,20,15.00
2018,07,19,01,21,15.00
2018,07,19,01,22,15.00
2018,07,19,01,23,15.00
2018,07,19,01,24,15.00
2018,07,19,01,25,15.00
2018,07,19,01,26,15.00
2018,07,19,01,27,15.00
2018,07,19,01,28,15.00
2018,07,19,01,29,15.00
2018,07,19,01,30,15.00
2018,07,19,01,31,15.00
2018,07,19,01,32,15.00
2018,07,19,01,33,15.00
2018,07,19,01,34,15.00
2018,07,19,01,35,14.90
2018,07,19,01,36,14.80
2018,07,19,01,37,14.80
2018,07,19,01,38,14.70
2018,07,19,01,39,14.70
2018,07,19,01,40,14.70
2018,07,19,01,41,14.70
2018,07,19,01,42,14.70
2018,07,19,01,43,14.70
2018,07,19,01,44,14.70
2018,07,19,01,45,14.60
2018,07,19,01,46,14.60
2018,07,19,01,47,14.60
2018,07,19,01,48,14.60
2018,07,19,01,49,14.60
2018,07,19,01,50,14.60
2018,07,19,01,51,14.60
2018,07,19,01,52,14.60
2018,07,19,01,53,14.60
2018,07,19,01,54,14.60
2018,07,19,01,55,14.60
2018,07,19,01,56,14.50
2018,07,19,01,57,14.50
2018,07,19,01,58,14.50
2018,07,19,01,59,14.50
2018,07,19,02,00,14.50
2018,07,19,02,01,14.40
2018,07,19,02,02,14.40
2018,07,19,02,03,14.40
2018,07,19,02,04,14.40
2018,07,19,02,05,14.40
2018,07,19,02,06,14.40
2018,07,19,02,07,14.30
2018,07,19,02,08,14.30
2018,07,19,02,09,14.30
2018,07,19,02,10,14.30
2018,07,19,02,11,14.30
2018,07,19,02,12,14.30
2018,07,19,02,13,14.30
2018,07,19,02,14,14.30
2018,07,19,02,15,14.30
2018,07,19,02,16,14.20
2018,07,19,02,17,14.20
2018,07,19,02,18,14.20
2018,07,19,02,19,14.20
2018,07,19,02,20,14.20
2018,07,19,02,21,14.20
2018,07,19,02,22,14.20
2018,07,19,02,23,14.20
2018,07,19,02,24,14.20
2018,07,19,02,25,14.20
2018,07,19,02,26,14.20
2018,07,19,02,27,14.20
2018,07,19,02,28,14.20
2018,07,19,02,29,14.10
2018,07,19,02,30,14.10
2018,07,19,02,31,14.10
2018,07,19,02,32,14.10
2018,07,19,02,33,14.10
2018,07,19,02,34,14.10
2018,07,19,02,35,14.10
2018,07,19,02,36,14.00
2018,07,19,02,37,14.00
2018,07,19,02,38,14.00
2018,07,19,02,39,13.90
2018,07,19,02,40,13.90
2018,07,19,02,41,13.90
2018,07,19,02,42,13.80
2018,07,19,02,43,13.80
2018,07,19,02,44,13.80
2018,07,19,02,45,13.80
2018,07,19,02,46,13.80
2018,07,19,02,47,13.80
2018,07,19,02,48,13.80
2018,07,19,02,49,13.70
2018,07,19,02,50,13.70
2018,07,19,02,51,13.70
2018,07,19,02,52,13.70
2018,07,19,02,53,13.70
2018,07,19,02,54,13.70
2018,07,19,02,55,13.60
2018,07,19,02,56,13.60
2018,07,19,02,57,13.60
2018,07,19,02,58,13.60
2018,07,19,02,59,13.60
2018,07,19,03,00,13.60
2018,07,19,03,01,13.60
2018,07,19,03,02,13.60
2018,07,19,03,03,13.50
2018,07,19,03,04,13.50
2018,07,19,03,05,13.50
2018,07,19,03,06,13.60
2018,07,19,03,07,13.50
2018,07,19,03,08,13.50
2018,07,19,03,09,13.40
2018,07,19,03,10,13.40
2018,07,19,03,11,13.40
2018,07,19,03,12,13.40
2018,07,19,03,13,13.40
2018,07,19,03,14,13.40
2018,07,19,03,15,13.40
2018,07,19,03,16,13.40
2018,07,19,03,17,13.40
2018,07,19,03,18,13.40
2018,07,19,03,19,13.40
2018,07,19,03,20,13.40
2018,07,19,03,21,13.40
2018,07,19,03,22,13.40
2018,07,19,03,23,13.40
2018,07,19,03,24,13.40
2018,07,19,03,25,13.40
2018,07,19,03,26,13.40
2018,07,19,03,27,13.40
2018,07,19,03,28,13.40
2018,07,19,03,29,13.40
2018,07,19,03,30,13.40
2018,07,19,03,31,13.40
2018,07,19,03,32,13.40
2018,07,19,03,33,13.40
2018,07,19,03,34,13.40
2018,07,19,03,35,13.40
2018,07,19,03,36,13.40
2018,07,19,03,37,13.40
2018,07,19,03,38,13.40
2018,07,19,03,39,13.30
2018,07,19,03,40,13.30
2018,07,19,03,41,13.30
2018,07,19,03,42,13.30
2018,07,19,03,43,13.30
2018,07,19,03,44,13.30
2018,07,19,03,45,13.30
2018,07,19,03,46,13.30
2018,07,19,03,47,13.30
2018,07,19,03,48,13.30
2018,07,19,03,49,13.30
2018,07,19,03,50,13.30
2018,07,19,03,51,13.30
2018,07,19,03,52,13.30
2018,07,19,03,53,13.30
2018,07,19,03,54,13.30
2018,07,19,03,55,13.20
2018,07,19,03,56,13.20
2018,07,19,03,57,13.20
2018,07,19,03,58,13.20
2018,07,19,03,59,13.10
2018,07,19,04,00,13.10
2018,07,19,04,01,13.10
2018,07,19,04,02,13.10
2018,07,19,04,03,13.10
2018,07,19,04,04,13.10
2018,07,19,04,05,13.10
2018,07,19,04,06,13.20
2018,07,19,04,07,13.10
2018,07,19,04,08,13.20
2018,07,19,04,09,13.20
2018,07,19,04,10,13.20
2018,07,19,04,11,13.20
2018,07,19,04,12,13.20
2018,07,19,04,13,13.20
2018,07,19,04,14,13.20
2018,07,19,04,15,13.20
2018,07,19,04,16,13.20
2018,07,19,04,17,13.20
2018,07,19,04,18,13.20
2018,07,19,04,19,13.20
2018,07,19,04,20,13.20
2018,07,19,04,21,13.20
2018,07,19,04,22,13.20
2018,07,19,04,23,13.20
2018,07,19,04,24,13.20
2018,07,19,04,25,13.20
2018,07,19,04,26,13.20
2018,07,19,04,27,13.20
2018,07,19,04,28,13.20
2018,07,19,04,29,13.30
2018,07,19,04,30,13.30
2018,07,19,04,31,13.30
2018,07,19,04,32,13.30
2018,07,19,04,33,13.30
2018,07,19,04,34,13.30
2018,07,19,04,35,13.30
2018,07,19,04,36,13.30
2018,07,19,04,37,13.40
2018,07,19,04,38,13.40
2018,07,19,04,39,13.40
2018,07,19,04,40,13.40
2018,07,19,04,41,13.40
2018,07,19,04,42,13.40
2018,07,19,04,43,13.50
2018,07,19,04,44,13.50
2018,07,19,04,45,13.50
2018,07,19,04,46,13.50
2018,07,19,04,47,13.60
2018,07,19,04,48,13.60
2018,07,19,04,49,13.60
2018,07,19,04,50,13.60
2018,07,19,04,51,13.60
2018,07,19,04,52,13.60
2018,07,19,04,53,13.60
2018,07,19,04,54,13.60
2018,07,19,04,55,13.60
2018,07,19,04,56,13.60
2018,07,19,04,57,13.60
2018,07,19,04,58,13.70
2018,07,19,04,59,13.70
2018,07,19,05,00,13.70
2018,07,19,05,01,13.70
2018,07,19,05,02,13.70
2018,07,19,05,03,13.80
2018,07,19,05,04,13.80
2018,07,19,05,05,13.80
2018,07,19,05,06,13.80
2018,07,19,05,07,13.80
2018,07,19,05,08,13.90
2018,07,19,05,09,13.90
2018,07,19,05,10,13.90
2018,07,19,05,11,13.90
2018,07,19,05,12,13.90
2018,07,19,05,13,13.90
2018,07,19,05,14,13.90
2018,07,19,05,15,14.00
2018,07,19,05,16,14.00
2018,07,19,05,17,14.00
2018,07,19,05,18,14.10
2018,07,19,05,19,14.10
2018,07,19,05,20,14.10
2018,07,19,05,21,14.10
2018,07,19,05,22,14.10
2018,07,19,05,23,14.10
2018,07,19,05,24,14.10
2018,07,19,05,25,14.10
2018,07,19,05,26,14.10
2018,07,19,05,27,14.10
2018,07,19,05,28,14.10
2018,07,19,05,29,14.10
2018,07,19,05,30,14.10
2018,07,19,05,31,14.10
2018,07,19,05,32,14.10
2018,07,19,05,33,14.20
2018,07,19,05,34,14.20
2018,07,19,05,35,14.20
2018,07,19,05,36,14.20
2018,07,19,05,37,14.20
2018,07,19,05,38,14.20
2018,07,19,05,39,14.20
2018,07,19,05,40,14.20
2018,07,19,05,41,14.20
2018,07,19,05,42,14.20
2018,07,19,05,43,14.20
2018,07,19,05,44,14.20
2018,07,19,05,45,14.20
2018,07,19,05,46,14.20
2018,07,19,05,47,14.20
2018,07,19,05,48,14.20
2018,07,19,05,49,14.20
2018,07,19,05,50,14.20
2018,07,19,05,51,14.20
2018,07,19,05,52,14.30
2018,07,19,05,53,14.30
2018,07,19,05,54,14.30
2018,07,19,05,55,14.30
2018,07,19,05,56,14.30
2018,07,19,05,57,14.30
2018,07,19,05,58,14.30
2018,07,19,05,59,14.30
2018,07,19,06,00,14.30
2018,07,19,06,01,14.40
2018,07,19,06,02,14.40
2018,07,19,06,03,14.40
2018,07,19,06,04,14.40
2018,07,19,06,05,14.40
2018,07,19,06,06,14.50
2018,07,19,06,07,14.50
2018,07,19,06,08,14.50
2018,07,19,06,09,14.50
2018,07,19,06,10,14.60
2018,07,19,06,11,14.60
2018,07,19,06,12,14.60
2018,07,19,06,13,14.60
2018,07,19,06,14,14.60
2018,07,19,06,15,14.60
2018,07,19,06,16,14.60
2018,07,19,06,17,14.60
2018,07,19,06,18,14.70
2018,07,19,06,19,14.70
2018,07,19,06,20,14.70
2018,07,19,06,21,14.70
2018,07,19,06,22,14.70
2018,07,19,06,23,14.70
2018,07,19,06,24,14.70
2018,07,19,06,25,14.70
2018,07,19,06,26,14.70
2018,07,19,06,27,14.70
2018,07,19,06,28,14.70
2018,07,19,06,29,14.70
2018,07,19,06,30,14.70
2018,07,19,06,31,14.70
2018,07,19,06,32,14.70
2018,07,19,06,33,14.70
2018,07,19,06,34,14.70
2018,07,19,06,35,14.70
2018,07,19,06,36,14.70
2018,07,19,06,37,14.70
2018,07,19,06,38,14.70
2018,07,19,06,39,14.70
2018,07,19,06,40,14.80
2018,07,19,06,41,14.80
2018,07,19,06,42,14.80
2018,07,19,06,43,14.80
2018,07,19,06,44,14.80
2018,07,19,06,45,14.80
2018,07,19,06,46,14.80
2018,07,19,06,47,14.80
2018,07,19,06,48,14.80
2018,07,19,06,49,14.90
2018,07,19,06,50,14.90
2018,07,19,06,51,14.90
2018,07,19,06,52,15.00
2018,07,19,06,53,15.00
2018,07,19,06,54,15.00
2018,07,19,06,55,15.00
2018,07,19,06,56,15.00
2018,07,19,06,57,15.00
2018,07,19,06,58,15.00
2018,07,19,06,59,15.00
2018,07,19,07,00,15.00
2018,07,19,07,01,15.00
2018,07,19,07,02,15.00
2018,07,19,07,03,15.00
2018,07,19,07,04,15.00
2018,07,19,07,05,15.00
2018,07,19,07,06,15.10
2018,07,19,07,07,15.10
2018,07,19,07,08,15.10
2018,07,19,07,09,15.10
2018,07,19,07,10,15.10
2018,07,19,07,11,15.10
2018,07,19,07,12,15.10
2018,07,19,07,13,15.10
2018,07,19,07,14,15.10
2018,07,19,07,15,15.20
2018,07,19,07,16,15.20
2018,07,19,07,17,15.20
2018,07,19,07,18,15.30
2018,07,19,07,19,15.30
2018,07,19,07,20,15.30
2018,07,19,07,21,15.40
2018,07,19,07,22,15.40
2018,07,19,07,23,15.40
2018,07,19,07,24,15.50
2018,07,19,07,25,15.60
2018,07,19,07,26,15.60
2018,07,19,07,27,15.60
2018,07,19,07,28,15.70
2018,07,19,07,29,15.70
2018,07,19,07,30,15.70
2018,07,19,07,31,15.80
2018,07,19,07,32,15.80
2018,07,19,07,33,15.80
2018,07,19,07,34,15.90
2018,07,19,07,35,15.90
2018,07,19,07,36,15.90
2018,07,19,07,37,16.00
2018,07,19,07,38,16.00
2018,07,19,07,39,16.00
2018,07,19,07,40,16.10
2018,07,19,07,41,16.10
2018,07,19,07,42,16.10
2018,07,19,07,43,16.10
2018,07,19,07,44,16.10
2018,07,19,07,45,16.20
2018,07,19,07,46,16.20
2018,07,19,07,47,16.20
2018,07,19,07,48,16.20
2018,07,19,07,49,16.30
2018,07,19,07,50,16.30
2018,07,19,07,51,16.30
2018,07,19,07,52,16.40
2018,07,19,07,53,16.40
2018,07,19,07,54,16.40
2018,07,19,07,55,16.50
2018,07,19,07,56,16.50
2018,07,19,07,57,16.50
2018,07,19,07,58,16.50
2018,07,19,07,59,16.60
2018,07,19,08,00,16.60
2018,07,19,08,01,16.60
2018,07,19,08,02,16.60
2018,07,19,08,03,16.60
2018,07,19,08,04,16.70
2018,07,19,08,05,16.70
2018,07,19,08,06,16.70
2018,07,19,08,07,16.70
2018,07,19,08,08,16.70
2018,07,19,08,09,16.70
2018,07,19,08,10,16.70
2018,07,19,08,11,16.70
2018,07,19,08,12,16.80
2018,07,19,08,13,16.80
2018,07,19,08,14,16.80
2018,07,19,08,15,16.80
2018,07,19,08,16,16.90
2018,07,19,08,17,16.90
2018,07,19,08,18,16.90
2018,07,19,08,19,17.00
2018,07,19,08,20,17.00
2018,07,19,08,21,17.00
2018,07,19,08,22,17.10
2018,07,19,08,23,17.10
2018,07,19,08,24,17.10
2018,07,19,08,25,17.10
2018,07,19,08,26,17.20
2018,07,19,08,27,17.20
2018,07,19,08,28,17.20
2018,07,19,08,29,17.20
2018,07,19,08,30,17.30
2018,07,19,08,31,17.30
2018,07,19,08,32,17.30
2018,07,19,08,33,17.30
2018,07,19,08,34,17.40
2018,07,19,08,35,17.40
2018,07,19,08,36,17.40
2018,07,19,08,37,17.40
2018,07,19,08,38,17.50
2018,07,19,08,39,17.50
2018,07,19,08,40,17.50
2018,07,19,08,41,17.60
2018,07,19,08,42,17.60
2018,07,19,08,43,17.60
2018,07,19,08,44,17.60
2018,07,19,08,45,17.60
2018,07,19,08,46,17.60
2018,07,19,08,47,17.60
2018,07,19,08,48,17.70
2018,07,19,08,49,17.70
2018,07,19,08,50,17.70
2018,07,19,08,51,17.70
2018,07,19,08,52,17.80
2018,07,19,08,53,17.80
2018,07,19,08,54,17.80
2018,07,19,08,55,17.80
2018,07,19,08,56,17.80
2018,07,19,08,57,17.80
2018,07,19,08,58,17.80
2018,07,19,08,59,17.80
2018,07,19,09,00,17.80
2018,07,19,09,01,17.80
2018,07,19,09,02,17.90
2018,07,19,09,03,17.90
2018,07,19,09,04,17.90
2018,07,19,09,05,17.90
2018,07,19,09,06,18.00
2018,07,19,09,07,18.00
2018,07,19,09,08,18.10
2018,07,19,09,09,18.10
2018,07,19,09,10,18.20
2018,07,19,09,11,18.20
2018,07,19,09,12,18.20
2018,07,19,09,13,18.30
2018,07,19,09,14,18.30
2018,07,19,09,15,18.40
2018,07,19,09,16,18.40
2018,07,19,09,17,18.40
2018,07,19,09,18,18.40
2018,07,19,09,19,18.50
2018,07,19,09,20,18.50
2018,07,19,09,21,18.50
2018,07,19,09,22,18.60
2018,07,19,09,23,18.60
2018,07,19,09,24,18.60
2018,07,19,09,25,18.60
2018,07,19,09,26,18.60
2018,07,19,09,27,18.70
2018,07,19,09,28,18.70
2018,07,19,09,29,18.70
2018,07,19,09,30,18.70
2018,07,19,09,31,18.80
2018,07,19,09,32,18.80
2018,07,19,09,33,18.80
2018,07,19,09,34,18.80
2018,07,19,09,35,18.90
2018,07,19,09,36,18.80
2018,07,19,09,37,18.90
2018,07,19,09,38,18.90
2018,07,19,09,39,18.90
2018,07,19,09,40,18.90
2018,07,19,09,41,19.00
2018,07,19,09,42,19.00
2018,07,19,09,43,19.00
2018,07,19,09,44,19.00
2018,07,19,09,45,19.10
2018,07,19,09,46,19.10
2018,07,19,09,47,19.10
2018,07,19,09,48,19.20
2018,07,19,09,49,19.20
2018,07,19,09,50,19.20
2018,07,19,09,51,19.30
2018,07,19,09,52,19.30
2018,07,19,09,53,19.30
2018,07,19,09,54,19.40
2018,07,19,09,55,19.40
2018,07,19,09,56,19.40
2018,07,19,09,57,19.40
2018,07,19,09,58,19.40
2018,07,19,09,59,19.40
2018,07,19,10,00,19.40
2018,07,19,10,01,19.40
2018,07,19,10,02,19.40
2018,07,19,10,03,19.40
2018,07,19,10,04,19.40
2018,07,19,10,05,19.40
2018,07,19,10,06,19.30
2018,07,19,10,07,19.30
2018,07,19,10,08,19.30
2018,07,19,10,09,19.30
2018,07,19,10,10,19.30
2018,07,19,10,11,19.30
2018,07,19,10,12,19.30
2018,07,19,10,13,19.30
2018,07,19,10,14,19.30
2018,07,19,10,15,19.30
2018,07,19,10,16,19.30
2018,07,19,10,17,19.20
2018,07,19,10,18,19.20
2018,07,19,10,19,19.20
2018,07,19,10,20,19.20
2018,07,19,10,21,19.20
2018,07,19,10,22,19.20
2018,07,19,10,23,19.20
2018,07,19,10,24,19.30
2018,07,19,10,25,19.30
2018,07,19,10,26,19.30
2018,07,19,10,27,19.30
2018,07,19,10,28,19.30
2018,07,19,10,29,19.30
2018,07,19,10,30,19.30
2018,07,19,10,31,19.30
2018,07,19,10,32,19.30
2018,07,19,10,33,19.30
2018,07,19,10,34,19.30
2018,07,19,10,35,19.30
2018,07,19,10,36,19.30
2018,07,19,10,37,19.30
2018,07,19,10,38,19.30
2018,07,19,10,39,19.30
2018,07,19,10,40,19.30
2018,07,19,10,41,19.30
2018,07,19,10,42,19.30
2018,07,19,10,43,19.30
2018,07,19,10,44,19.30
2018,07,19,10,45,19.20
2018,07,19,10,46,19.20
2018,07,19,10,47,19.20
2018,07,19,10,48,19.20
2018,07,19,10,49,19.20
2018,07,19,10,50,19.20
2018,07,19,10,51,19.10
2018,07,19,10,52,19.10
2018,07,19,10,53,19.10
2018,07,19,10,54,19.10
2018,07,19,10,55,19.20
2018,07,19,10,56,19.20
2018,07,19,10,57,19.20
2018,07,19,10,58,19.20
2018,07,19,10,59,19.30
2018,07,19,11,00,19.30
2018,07,19,11,01,19.30
2018,07,19,11,02,19.40
2018,07,19,11,03,19.50
2018,07,19,11,04,19.50
2018,07,19,11,05,19.60
2018,07,19,11,06,19.60
2018,07,19,11,07,19.60
2018,07,19,11,08,19.60
2018,07,19,11,09,19.50
2018,07,19,11,10,19.50
2018,07,19,11,11,19.50
2018,07,19,11,12,19.50
2018,07,19,11,13,19.50
2018,07,19,11,14,19.60
2018,07,19,11,15,19.60
2018,07,19,11,16,19.70
2018,07,19,11,17,19.70
2018,07,19,11,18,19.70
2018,07,19,11,19,19.70
2018,07,19,11,20,19.70
2018,07,19,11,21,19.60
2018,07,19,11,22,19.60
2018,07,19,11,23,19.60
2018,07,19,11,24,19.60
2018,07,19,11,25,19.60
2018,07,19,11,26,19.70
2018,07,19,11,27,19.70
2018,07,19,11,28,19.80
2018,07,19,11,29,19.80
2018,07,19,11,30,19.80
2018,07,19,11,31,19.90
2018,07,19,11,32,20.00
2018,07,19,11,33,20.00
2018,07,19,11,34,20.10
2018,07,19,11,35,20.20
2018,07,19,11,36,20.30
2018,07,19,11,37,20.30
2018,07,19,11,38,20.40
2018,07,19,11,39,20.40
2018,07,19,11,40,20.30
2018,07,19,11,41,20.20
2018,07,19,11,42,20.10
2018,07,19,11,43,20.00
2018,07,19,11,44,19.90
2018,07,19,11,45,19.90
2018,07,19,11,46,19.90
2018,07,19,11,47,19.90
2018,07,19,11,48,20.00
2018,07,19,11,49,20.00
2018,07,19,11,50,20.00
2018,07,19,11,51,20.00
2018,07,19,11,52,20.10
2018,07,19,11,53,20.10
2018,07,19,11,54,20.00
2018,07,19,11,55,20.00
2018,07,19,11,56,20.00
2018,07,19,11,57,20.00
2018,07,19,11,58,20.00
2018,07,19,11,59,20.00
2018,07,19,12,00,20.00
2018,07,19,12,01,20.10
2018,07,19,12,02,20.10
2018,07,19,12,03,20.10
2018,07,19,12,04,20.10
2018,07,19,12,05,20.10
2018,07,19,12,06,20.10
2018,07,19,12,07,20.10
2018,07,19,12,08,20.10
2018,07,19,12,09,20.20
2018,07,19,12,10,20.20
2018,07,19,12,11,20.10
2018,07,19,12,12,20.10
2018,07,19,12,13,20.10
2018,07,19,12,14,20.10
2018,07,19,12,15,20.10
2018,07,19,12,16,20.10
2018,07,19,12,17,20.10
2018,07,19,12,18,20.10
2018,07,19,12,19,20.20
2018,07,19,12,20,20.20
2018,07,19,12,21,20.30
2018,07,19,12,22,20.40
2018,07,19,12,23,20.40
2018,07,19,12,24,20.50
2018,07,19,12,25,20.50
2018,07,19,12,26,20.50
2018,07,19,12,27,20.40
2018,07,19,12,28,20.30
2018,07,19,12,29,20.30
2018,07,19,12,30,20.30
2018,07,19,12,31,20.30
2018,07,19,12,32,20.30
2018,07,19,12,33,20.30
2018,07,19,12,34,20.40
2018,07,19,12,35,20.50
2018,07,19,12,36,20.40
2018,07,19,12,37,20.50
2018,07,19,12,38,20.50
2018,07,19,12,39,20.60
2018,07,19,12,40,20.70
2018,07,19,12,41,20.80
2018,07,19,12,42,20.90
2018,07,19,12,43,21.00
2018,07,19,12,44,21.00
2018,07,19,12,45,21.20
2018,07,19,12,46,21.20
2018,07,19,12,47,21.30
2018,07,19,12,48,21.40
2018,07,19,12,49,21.50
2018,07,19,12,50,21.60
2018,07,19,12,51,21.70
2018,07,19,12,52,21.80
2018,07,19,12,53,21.90
2018,07,19,12,54,22.00
2018,07,19,12,55,22.10
2018,07,19,12,56,22.10
2018,07,19,12,57,22.20
2018,07,19,12,58,22.20
2018,07,19,12,59,22.20
2018,07,19,13,00,22.10
2018,07,19,13,01,22.00
2018,07,19,13,02,21.90
2018,07,19,13,03,21.80
2018,07,19,13,04,21.80
2018,07,19,13,05,21.70
2018,07,19,13,06,21.70
2018,07,19,13,07,21.60
2018,07,19,13,08,21.60
2018,07,19,13,09,21.50
2018,07,19,13,10,21.40
2018,07,19,13,11,21.30
2018,07,19,13,12,21.20
2018,07,19,13,13,21.10
2018,07,19,13,14,21.00
2018,07,19,13,15,21.00
2018,07,19,13,16,21.00
2018,07,19,13,17,20.90
2018,07,19,13,18,20.90
2018,07,19,13,19,21.00
2018,07,19,13,20,21.00
2018,07,19,13,21,21.00
2018,07,19,13,22,21.10
2018,07,19,13,23,21.10
2018,07,19,13,24,21.10
2018,07,19,13,25,21.10
2018,07,19,13,26,21.10
2018,07,19,13,27,21.10
2018,07,19,13,28,21.10
2018,07,19,13,29,21.20
2018,07,19,13,30,21.20
2018,07,19,13,31,21.10
2018,07,19,13,32,21.10
2018,07,19,13,33,21.00
2018,07,19,13,34,21.00
2018,07,19,13,35,21.10
2018,07,19,13,36,21.10
2018,07,19,13,37,21.20
2018,07,19,13,38,21.30
2018,07,19,13,39,21.40
2018,07,19,13,40,21.40
2018,07,19,13,41,21.50
2018,07,19,13,42,21.50
2018,07,19,13,43,21.60
2018,07,19,13,44,21.70
2018,07,19,13,45,21.70
2018,07,19,13,46,21.70
2018,07,19,13,47,21.70
2018,07,19,13,48,21.70
2018,07,19,13,49,21.70
2018,07,19,13,50,21.70
2018,07,19,13,51,21.70
2018,07,19,13,52,21.70
2018,07,19,13,53,21.70
2018,07,19,13,54,21.70
2018,07,19,13,55,21.70
2018,07,19,13,56,21.70
2018,07,19,13,57,21.70
2018,07,19,13,58,21.60
2018,07,19,13,59,21.50
2018,07,19,14,00,21.50
2018,07,19,14,01,21.40
2018,07,19,14,02,21.30
2018,07,19,14,03,21.30
2018,07,19,14,04,21.30
2018,07,19,14,05,21.30
2018,07,19,14,06,21.20
2018,07,19,14,07,21.20
2018,07,19,14,08,21.20
2018,07,19,14,09,21.30
2018,07,19,14,10,21.20
2018,07,19,14,11,21.20
2018,07,19,14,12,21.30
2018,07,19,14,13,21.30
2018,07,19,14,14,21.30
2018,07,19,14,15,21.40
2018,07,19,14,16,21.40
2018,07,19,14,17,21.40
2018,07,19,14,18,21.40
2018,07,19,14,19,21.40
2018,07,19,14,20,21.40
2018,07,19,14,21,21.40
2018,07,19,14,22,21.40
2018,07,19,14,23,21.50
2018,07,19,14,24,21.50
2018,07,19,14,25,21.50
2018,07,19,14,26,21.50
2018,07,19,14,27,21.50
2018,07,19,14,28,21.50
2018,07,19,14,29,21.50
2018,07,19,14,30,21.60
2018,07,19,14,31,21.60
2018,07,19,14,32,21.70
2018,07,19,14,33,21.70
2018,07,19,14,34,21.80
2018,07,19,14,35,21.80
2018,07,19,14,36,21.80
2018,07,19,14,37,21.80
2018,07,19,14,38,21.80
2018,07,19,14,39,21.90
2018,07,19,14,40,21.90
2018,07,19,14,41,22.00
2018,07,19,14,42,22.00
2018,07,19,14,43,22.10
2018,07,19,14,44,22.10
2018,07,19,14,45,22.10
2018,07,19,14,46,22.10
2018,07,19,14,47,22.10
2018,07,19,14,48,22.00
2018,07,19,14,49,22.00
2018,07,19,14,50,22.00
2018,07,19,14,51,22.00
2018,07,19,14,52,22.00
2018,07,19,14,53,22.10
2018,07,19,14,54,22.10
2018,07,19,14,55,22.10
2018,07,19,14,56,22.20
2018,07,19,14,57,22.30
2018,07,19,14,58,22.40
2018,07,19,14,59,22.50
2018,07,19,15,00,22.60
2018,07,19,15,01,22.70
2018,07,19,15,02,22.80
2018,07,19,15,03,22.80
2018,07,19,15,04,22.90
2018,07,19,15,05,23.00
2018,07,19,15,06,23.10
2018,07,19,15,07,23.20
2018,07,19,15,08,23.30
2018,07,19,15,09,23.30
2018,07,19,15,10,23.20
2018,07,19,15,11,23.20
2018,07,19,15,12,23.20
2018,07,19,15,13,23.10
2018,07,19,15,14,23.00
2018,07,19,15,15,22.90
2018,07,19,15,16,22.90
2018,07,19,15,17,22.90
2018,07,19,15,18,22.80
2018,07,19,15,19,22.80
2018,07,19,15,20,22.80
2018,07,19,15,21,22.80
2018,07,19,15,22,22.80
2018,07,19,15,23,22.80
2018,07,19,15,24,22.70
2018,07,19,15,25,22.60
2018,07,19,15,26,22.60
2018,07,19,15,27,22.60
2018,07,19,15,28,22.60
2018,07,19,15,29,22.60
2018,07,19,15,30,22.60
2018,07,19,15,31,22.60
2018,07,19,15,32,22.60
2018,07,19,15,33,22.60
2018,07,19,15,34,22.60
2018,07,19,15,35,22.60
2018,07,19,15,36,22.60
2018,07,19,15,37,22.50
2018,07,19,15,38,22.40
2018,07,19,15,39,22.30
2018,07,19,15,40,22.20
2018,07,19,15,41,22.10
2018,07,19,15,42,22.00
2018,07,19,15,43,22.00
2018,07,19,15,44,21.90
2018,07,19,15,45,21.90
2018,07,19,15,46,21.80
2018,07,19,15,47,21.80
2018,07,19,15,48,21.90
2018,07,19,15,49,21.90
2018,07,19,15,50,21.80
2018,07,19,15,51,21.80
2018,07,19,15,52,21.80
2018,07,19,15,53,21.70
2018,07,19,15,54,21.60
2018,07,19,15,55,21.50
2018,07,19,15,56,21.40
2018,07,19,15,57,21.40
2018,07,19,15,58,21.30
2018,07,19,15,59,21.30
2018,07,19,16,00,21.30
2018,07,19,16,01,21.40
2018,07,19,16,02,21.50
2018,07,19,16,03,21.50
2018,07,19,16,04,21.60
2018,07,19,16,05,21.70
2018,07,19,16,06,21.70
2018,07,19,16,07,21.60
2018,07,19,16,08,21.60
2018,07,19,16,09,21.50
2018,07,19,16,10,21.60
2018,07,19,16,11,21.60
2018,07,19,16,12,21.70
2018,07,19,16,13,21.60
2018,07,19,16,14,21.60
2018,07,19,16,15,21.60
2018,07,19,16,16,21.60
2018,07,19,16,17,21.60
2018,07,19,16,18,21.60
2018,07,19,16,19,21.60
2018,07,19,16,20,21.70
2018,07,19,16,21,21.70
2018,07,19,16,22,21.80
2018,07,19,16,23,21.80
2018,07,19,16,24,21.80
2018,07,19,16,25,21.80
2018,07,19,16,26,21.80
2018,07,19,16,27,21.80
2018,07,19,16,28,21.70
2018,07,19,16,29,21.60
2018,07,19,16,30,21.60
2018,07,19,16,31,21.50
2018,07,19,16,32,21.40
2018,07,19,16,33,21.40
2018,07,19,16,34,21.40
2018,07,19,16,35,21.30
2018,07,19,16,36,21.40
2018,07,19,16,37,21.40
2018,07,19,16,38,21.50
2018,07,19,16,39,21.60
2018,07,19,16,40,21.70
2018,07,19,16,41,21.80
2018,07,19,16,42,21.80
2018,07,19,16,43,21.80
2018,07,19,16,44,21.80
2018,07,19,16,45,21.80
2018,07,19,16,46,21.80
2018,07,19,16,47,21.80
2018,07,19,16,48,21.80
2018,07,19,16,49,21.80
2018,07,19,16,50,21.80
2018,07,19,16,51,21.90
2018,07,19,16,52,21.90
2018,07,19,16,53,22.00
2018,07,19,16,54,22.00
2018,07,19,16,55,22.00
2018,07,19,16,56,22.10
2018,07,19,16,57,22.10
2018,07,19,16,58,22.20
2018,07,19,16,59,22.30
2018,07,19,17,00,22.30
2018,07,19,17,01,22.30
2018,07,19,17,02,22.30
2018,07,19,17,03,22.30
2018,07,19,17,04,22.30
2018,07,19,17,05,22.30
2018,07,19,17,06,22.30
2018,07,19,17,07,22.30
2018,07,19,17,08,22.30
2018,07,19,17,09,22.40
2018,07,19,17,10,22.50
2018,07,19,17,11,22.60
2018,07,19,17,12,22.70
2018,07,19,17,13,22.80
2018,07,19,17,14,22.90
2018,07,19,17,15,23.00
2018,07,19,17,16,23.10
2018,07,19,17,17,23.20
2018,07,19,17,18,23.20
2018,07,19,17,19,23.20